Weather History for Gulkana, AK

Change the Weather History Date:

Monday, January 13, 2014

  Actual Average Record
Temperature  
Mean Temperature -8 °F -  
Max Temperature 1 °F -1 °F 43 °F (1984)
Min Temperature -16 °F -18 °F -55 °F (1972)
Degree Days  
Heating Degree Days 72    
Moisture  
Dew Point -7 °F    
Average Humidity 83    
Maximum Humidity 91    
Minimum Humidity 63    
Precipitation  
Precipitation 0.04 in - - ()
Sea Level Pressure  
Sea Level Pressure 29.62 in    
Wind  
Wind Speed 1 mph (NW)    
Max Wind Speed 5 mph    
Max Gust Speed -    
Visibility 3 miles    
Events Fog , Snow    
Averages and records for this station are not official NWS values.
T = Trace of Precipitation, MM = Missing Value Source: NWS Daily Summary

Daily Weather History Graph

Daily Weather History Graph

Search for Another Location

Airport:

Trip Planner

Search our weather history database for the weather conditions in past years. The results will help you decide how hot, cold, wet, or windy it might be!

Date:

Astronomy

Jan. 13, 2014 Rise Set
Actual Time 9:50 AM AKST 3:50 PM AKST
Civil Twilight 8:50 AM AKST 4:50 PM AKST
Nautical Twilight 7:51 AM AKST 5:50 PM AKST
Astronomical Twilight 6:57 AM AKST 6:44 PM AKST
Moon 2:21 PM AKST (1/13) 7:40 AM AKST (1/13)
Length of Visible Light 7h 59m
Length of Day
5h 59m
Waxing Gibbous, 95% of the Moon is Illuminated
Jan 13
Waxing Gibbous
Jan 15
Full
Jan 23
Last Quarter
Jan 30
New
Feb 6
First Quarter

Hourly Weather History & Observations

Time (AKST) Temp. Windchill Dew Point Humidity Pressure Visibility Wind Dir Wind Speed Gust Speed Precip Events Conditions
12:53 AM -2.0 °F - -7.1 °F 79% 29.56 in 5.0 mi Calm Calm - N/A   Haze
1:31 AM -0.9 °F - -6.0 °F 79% 29.39 in 5.0 mi Calm Calm - N/A   Haze
1:53 AM -2.0 °F - -6.0 °F 83% 29.59 in 5.0 mi Calm Calm - N/A   Overcast
3:53 AM -5.1 °F - -9.0 °F 83% 29.66 in 5.0 mi Calm Calm - N/A   Overcast
4:53 AM -2.9 °F -11.2 °F -7.1 °F 82% 29.69 in 5.0 mi WNW 3.5 mph - N/A   Overcast
5:53 AM -2.9 °F - -8.0 °F 79% 29.71 in 5.0 mi Calm Calm - N/A   Haze
6:53 AM -2.0 °F - -7.1 °F 79% 29.72 in 5.0 mi Calm Calm - N/A   Haze
7:53 AM -2.0 °F -12.2 °F -6.0 °F 83% 29.75 in 5.0 mi NNW 4.6 mph - N/A   Overcast
8:37 AM -2.0 °F -12.2 °F -6.0 °F 83% 29.59 in 5.0 mi NNW 4.6 mph - N/A   Overcast
8:53 AM -2.0 °F -10.1 °F -5.1 °F 87% 29.78 in 5.0 mi NNE 3.5 mph - N/A   Overcast
9:02 AM -2.0 °F -10.1 °F -5.1 °F 87% 29.60 in 4.0 mi ENE 3.5 mph - N/A   Overcast
9:19 AM -2.0 °F -10.1 °F -5.1 °F 87% 29.61 in 1.8 mi North 3.5 mph - N/A   Overcast
9:30 AM -2.0 °F -10.1 °F -5.1 °F 87% 29.61 in 0.8 mi North 3.5 mph - N/A   Overcast
9:44 AM -2.9 °F -11.2 °F -6.0 °F 87% 29.62 in 1.2 mi NW 3.5 mph - N/A   Overcast
9:53 AM -2.9 °F - -5.1 °F 90% 29.81 in 0.8 mi Calm Calm - N/A   Overcast
10:00 AM -4.0 °F - -6.0 °F 91% 29.62 in 2.0 mi Calm Calm - N/A   Overcast
10:08 AM -4.0 °F - -7.1 °F 87% 29.63 in 3.0 mi Calm Calm - N/A   Overcast
10:17 AM -4.0 °F - -7.1 °F 87% 29.63 in 1.8 mi Calm Calm - N/A   Overcast
10:34 AM -4.0 °F - -6.0 °F 91% 29.63 in 0.2 mi Calm Calm - N/A Fog Light Freezing Fog
10:53 AM -2.9 °F - -6.0 °F 87% 29.82 in 0.2 mi Calm Calm - N/A Fog Light Freezing Fog
11:06 AM -4.0 °F - -6.0 °F 91% 29.64 in 0.2 mi Calm Calm - N/A Fog Light Freezing Fog
11:17 AM -4.0 °F -12.4 °F -6.0 °F 91% 29.64 in 0.5 mi North 3.5 mph - N/A Fog Light Freezing Fog
11:30 AM -4.0 °F - -6.0 °F 91% 29.65 in 1.8 mi Calm Calm - N/A   Overcast
11:34 AM -4.0 °F - -6.0 °F 91% 29.65 in 2.0 mi Calm Calm - N/A   Overcast
11:46 AM -4.0 °F - -7.1 °F 87% 29.65 in 3.0 mi Calm Calm - N/A   Overcast
11:49 AM -4.0 °F - -7.6 °F 85% 29.65 in 1.8 mi Calm Calm - N/A   Overcast
11:53 AM -2.9 °F - -7.1 °F 82% 29.84 in 1.0 mi Calm Calm - N/A   Overcast
12:04 PM -2.9 °F - -7.1 °F 82% 29.65 in 3.0 mi Calm Calm - N/A   Overcast
12:30 PM -2.9 °F - -7.1 °F 82% 29.65 in 3.0 mi Calm Calm - N/A   Overcast
12:53 PM -2.9 °F - -7.1 °F 82% 29.83 in 3.0 mi Calm Calm - N/A   Mostly Cloudy
1:02 PM -4.0 °F - -7.1 °F 87% 29.64 in 3.0 mi Calm Calm - N/A   Scattered Clouds
1:53 PM -4.0 °F -12.4 °F -9.0 °F 79% 29.81 in 3.0 mi WNW 3.5 mph - N/A   Haze
2:53 PM -5.1 °F -13.6 °F -11.0 °F 76% 29.81 in 3.0 mi NW 3.5 mph - N/A   Haze
3:53 PM -6.0 °F - -9.9 °F 83% 29.77 in 3.0 mi Calm Calm - N/A   Mostly Cloudy
4:53 PM -6.0 °F - -9.9 °F 83% 29.74 in 5.0 mi Calm Calm - N/A   Clear
5:53 PM -5.1 °F - -9.0 °F 83% 29.70 in 5.0 mi Calm Calm - N/A   Clear
6:53 PM -4.0 °F - -9.0 °F 79% 29.67 in 5.0 mi Calm Calm - N/A   Haze
7:53 PM -4.0 °F - -8.0 °F 83% 29.63 in 5.0 mi Calm Calm - N/A   Overcast
8:46 PM -2.0 °F - -7.1 °F 79% 29.40 in 2.5 mi Calm Calm - 0.00 in Snow Light Snow
8:53 PM -2.0 °F - -7.1 °F 79% 29.58 in 2.0 mi Calm Calm - 0.00 in Snow Light Snow
9:44 PM -0.9 °F - -6.0 °F 79% 29.35 in 1.5 mi Calm Calm - 0.00 in Snow Light Snow
9:53 PM -0.9 °F - -5.1 °F 83% 29.52 in 1.5 mi Calm Calm - 0.00 in Snow Light Snow
10:33 PM -0.0 °F - -5.1 °F 79% 29.29 in 0.8 mi Calm Calm - 0.01 in Snow Light Snow
10:40 PM -0.0 °F -7.9 °F -5.1 °F 79% 29.28 in 1.0 mi WNW 3.5 mph - 0.01 in Snow Light Snow
10:53 PM -0.0 °F - -4.0 °F 83% 29.44 in 1.5 mi Calm Calm - 0.01 in Snow Light Snow
11:08 PM 1.0 °F -6.7 °F -4.0 °F 79% 29.25 in 2.5 mi WSW 3.5 mph - 0.01 in Snow Light Snow
11:29 PM 1.0 °F -6.7 °F -2.9 °F 83% 29.24 in 2.0 mi WSW 3.5 mph - 0.01 in Snow Light Snow
11:53 PM 1.9 °F - -2.0 °F 83% 29.40 in 2.5 mi Calm Calm - 0.01 in Snow Light Snow